This is the latest recevied weather packets stored in our database for station/object N4MGC. If no packets are shown the sender has not sent any weather packets the latest 10 day(s).
| Time | Temp. | Humidity | Pressure | Rain* | Wind** | Luminosity | Snow |
|---|---|---|---|---|---|---|---|
| 1777680775 | 15° C | 91% | 1013.4 hPa | 0 mm | - | 0 W/m² | - |
| 1777680472 | 15° C | 90% | 1013.4 hPa | 0 mm | - | 1 W/m² | - |
| 1777680170 | 15° C | 90% | 1013.5 hPa | 0 mm | - | 2 W/m² | - |
| 1777679864 | 15.56° C | 89% | 1013.5 hPa | 0 mm | - | 3 W/m² | - |
| 1777679561 | 15.56° C | 88% | 1013.6 hPa | 0 mm | - | 4 W/m² | - |
| 1777679257 | 15.56° C | 87% | 1013.6 hPa | 0 mm | - | 6 W/m² | - |
| 1777678954 | 15.56° C | 86% | 1013.5 hPa | 0 mm | - | 9 W/m² | - |
| 1777678652 | 15.56° C | 88% | 1013.3 hPa | 0 mm | - | 12 W/m² | - |
| 1777678349 | 15.56° C | 87% | 1013.5 hPa | 0 mm | - | 15 W/m² | - |
| 1777678045 | 16.11° C | 86% | 1013.6 hPa | 0 mm | - | 19 W/m² | - |
| 1777677742 | 16.11° C | 84% | 1013.5 hPa | 0 mm | - | 23 W/m² | - |
| 1777677440 | 16.11° C | 85% | 1013.7 hPa | 0 mm | - | 23 W/m² | - |
| 1777677138 | 16.11° C | 83% | 1013.7 hPa | 0 mm | - | 25 W/m² | - |
| 1777676836 | 16.11° C | 81% | 1013.5 hPa | 0 mm | - | 28 W/m² | - |
| 1777676534 | 16.11° C | 81% | 1013.5 hPa | 0 mm | - | 32 W/m² | - |
| 1777676231 | 16.11° C | 79% | 1013.6 hPa | 0 mm | - | 39 W/m² | - |
| 1777675928 | 16.67° C | 79% | 1013.3 hPa | 0 mm | - | 44 W/m² | - |
| 1777675624 | 16.67° C | 78% | 1013.2 hPa | 0 mm | - | 45 W/m² | - |
| 1777675322 | 16.67° C | 76% | 1013.5 hPa | 0 mm | - | 41 W/m² | - |
| 1777675018 | 16.67° C | 77% | 1013.2 hPa | 0 mm | - | 42 W/m² | - |
| 1777674715 | 16.67° C | 73% | 1013.3 hPa | 0 mm | - | 45 W/m² | - |
| 1777674411 | 16.67° C | 73% | 1013.4 hPa | 0 mm | - | 47 W/m² | - |
| 1777674109 | 17.22° C | 70% | 1013.4 hPa | 0 mm | - | 53 W/m² | - |
| 1777673804 | 17.22° C | 71% | 1013.5 hPa | 0 mm | - | 57 W/m² | - |
| 1777673502 | 17.78° C | 69% | 1013.6 hPa | 0 mm | - | 56 W/m² | - |
* Rain latest hour (hover to see other rain measurements)
** Current wind speed in m/s (hover to see current wind gust speed)